Regional Weather Roundup
Issued by NWS

Home | Current Version | Previous Version | Graphics & Text | Print | Product List | Glossary On
Versions: 1 2 3 4 5 6 7 8 9 10 11 12 13 14 15 16 17 18 19 20 21 22 23 24 25 26 27 28 29 30 31 32 33 34 35 36 37 38 39 40 41 42 43 44 45 46 47 48 49 50
000
ASUS43 KLOT 152106
RWRIL

ILLINOIS REGIONAL WEATHER ROUNDUP
NATIONAL WEATHER SERVICE CHICAGO/ROMEOVILLE IL
400 PM CDT MON SEP 15 2014

NOTE: "FAIR" INDICATES FEW OR NO CLOUDS BELOW 12,000 FEET WITH NO
SIGNIFICANT WEATHER AND/OR OBSTRUCTIONS TO VISIBILITY.

* THESE STATIONS ARE NOT UNDER NWS QUALITY CONTROL. THEY ALSO MAY NOT
  REPORT WEATHER SUCH AS PRECIPITATION OR FOG.

ILZ001-002-007-009-015-016-024-152200-
NORTHWEST ILLINOIS

CITY           SKY/WX    TMP DP  RH WIND       PRES   REMARKS
MOLINE         CLOUDY    60  52  74 N15G25    30.09R
STERLING*      CLOUDY    57  52  82 NE14      30.10R
SAVANNA*       CLOUDY    55  51  88 N9        30.12R
$$

ILZ003-004-008-010-011-017-018-152200-
NORTH CENTRAL ILLINOIS

CITY           SKY/WX    TMP DP  RH WIND       PRES   REMARKS
ROCKFORD       LGT RAIN  55  51  86 N15       30.14R
FREEPORT*      DRIZZLE   52  51  95 NE8       30.14S
ROCHELLE*      RAIN      56  53  88 N6        30.10R
DE KALB*       CLOUDY    54  52  94 CALM      30.10F
PERU*          CLOUDY    57  55  95 NE3       30.09S
$$

ILZ005-006-012>014-019>023-152200-
NORTHEAST ILLINOIS

CITY           SKY/WX    TMP DP  RH WIND       PRES   REMARKS
CHICAGO-OHARE  LGT RAIN  60  51  72 NW9       30.09R
CHICAGO-MIDWAY CLOUDY    59  53  80 W6        30.09S
AURORA         CLOUDY    57  52  83 CALM      30.10R
LANSING*       CLOUDY    56  54  92 CALM      30.09S
JOLIET*        DRIZZLE   55  53  92 CALM      30.09S
WAUKEGAN       CLOUDY    60  51  72 NW3       30.09R
DUPAGE AIRPORT CLOUDY    57  53  86 N7        30.09R FOG
KANKAKEE*      RAIN      56  54  94 E5        30.08S
WHEELING       CLOUDY    60  51  72 W6        30.10S
MORRIS*        DRIZZLE   56  56 100 CALM      30.08R
ROMEOVILLE*    RAIN      56  54  94 CALM      30.09R
NORTHERLY ISL    N/A     59  49  69 W7          N/A
$$

LMZ740>746-152200-
SOUTHERN LAKE MICHIGAN

STATION/POSITION SKY/WX   TEMP    WIND        PRES    VSBY  WAVE
                          AIR SEA DIR/SP/G                  HT/PER
                          (F)     (DEG/KT/KT) (MB)    (MI)  (FT/S)
SOUTHERN BUOY              60 65  320/ 10/ 12 1018.9R         1/ 3
WAUKEGAN HARBOR            60     270/  7/  9   N/A
HARRISON CRIB              58     260/ 11/ 12   N/A
BURNHAM HARBOR             59     260/  6/  9   N/A
CALUMET HARBOR             58     250/  5/  7 1017.6R
MICHIGAN CITY              56     200/ 10/ 12   N/A
MICHIGAN CITY 6N           58 64  210/ 10/ 14   N/A           2/ 2
ST. JOSEPH                 60 66  220/ 12/ 16   N/A           2/ 4
$$

ILZ025>027-034>036-040-047-049-050-058-095>099-152200-
WEST-CENTRAL ILLINOIS

CITY           SKY/WX    TMP DP  RH WIND       PRES   REMARKS
QUINCY         CLOUDY    62  58  86 N10       30.08R
GALESBURG*     CLOUDY    64  58  83 N8        30.08S
MACOMB*        CLOUDY    61  58  90 N8        30.09S
JACKSONVILLE*  CLOUDY    64  62  96 W3        30.08S
PITTSFIELD*    CLOUDY    64  61  91 NW5       30.08R
$$

ILZ028>032-037-038-041>044-048-051>054-059>061-152200-
CENTRAL ILLINOIS

CITY           SKY/WX    TMP DP  RH WIND       PRES   REMARKS
PONTIAC        RAIN      59  59 100 S3        30.07R
DECATUR        LGT RAIN  59  58  96 S7        30.07S FOG
PEORIA         LGT RAIN  59  56  89 NW5       30.07F FOG
LACON*         DRIZZLE   57  56  95 N5        30.07S
LINCOLN*       DRIZZLE   59  58  95 CALM      30.05S
SPRINGFIELD    LGT RAIN  60  59  96 S3        30.07R FOG
TAYLORVILLE    DRIZZLE   59  57  94 S3        30.06R
$$

ILZ033-039-045-046-055>057-062-063-152200-
EAST-CENTRAL ILLINOIS

CITY           SKY/WX    TMP DP  RH WIND       PRES   REMARKS
CHAMPAIGN      TSTM      57  57 100 S5        30.06R FOG
DANVILLE*      CLOUDY    57  55  92 S3        30.04S
RANTOUL*       PTSUNNY   60  55  85 S6        30.07S
MATTOON        LGT RAIN  59  57  93 S7        30.05R FOG
PARIS*         TSTM      58  56  95 S3        30.08R
$$

ILZ079-100>102-152200-
SOUTHWEST ILLINOIS

CITY           SKY/WX    TMP DP  RH WIND       PRES   REMARKS
ALTON          CLOUDY    70  64  83 CALM      30.06  FOG
BELLEVILLE     DRIZZLE   75  68  77 W5        30.03S
CAHOKIA*       CLOUDY    76  65  68 NW9       30.04R
SPARTA*        CLOUDY    76  65  66 SW5       30.04S
$$

ILZ064>066-069>071-074>076-080>082-084>086-088>090-092>094-152200-
SOUTH-CENTRAL ILLINOIS

CITY           SKY/WX    TMP DP  RH WIND       PRES   REMARKS
CARBONDALE     PTSUNNY   76  63  64 S9        30.05F
CAIRO*         FAIR      78  64  61 S8        30.07F
EFFINGHAM*     LGT RAIN  64  54  72 SE7       30.06R
MARION         PTSUNNY   77  63  61 S12       30.07F
MT. VERNON     CLOUDY    73  61  64 S7        30.07S
CENTRALIA*     PTSUNNY   72  60  66 S7        30.05F
SALEM*         CLOUDY    73  64  73 S3        30.06S
METROPOLIS*    FAIR      76  61  58 S7        30.07F
$$

ILZ067-068-072-073-078-083-087-091-152200-
SOUTHEAST ILLINOIS

CITY           SKY/WX    TMP DP  RH WIND       PRES   REMARKS
LAWRENCEVILLE  PTSUNNY   68  56  65 SE21      30.05F
FLORA*         FAIR      69  58  67 E5        30.06F
FAIRFIELD*     PTSUNNY  N/A N/A N/A S5        30.05F
HARRISBURG*    FAIR      75  60  59 S9        30.07F
ROBINSON*      CLOUDY    64  60  86 SE6       30.05F
CARMI*         CLOUDY    78  61  56 SE7       30.05F
$$

ABBREVIATIONS USED IN REMARKS
   TC - TEMPERATURE IN CELSIUS
  WCI - WIND CHILL INDEX
   HX - HEAT INDEX
  VSB - VISIBILITY
$$




USA.gov is the U.S. government's official web portal to all federal, state and local government web resources and services.